SCP
0 -0 -0 -0 -0 -0 -0 -0 -0 -0 0 0 0 0 -0 -0 -0 -0 -0 0 0 0 -0 -0 -0 -0 -0 -0 0 0 0 0 0 -0 -0 -0 -0 -0 -0 -0 -0 0 -0
-0 -0 -0 -0 -0 -0 -0 -0 -0 -0 -0 0 0 0 -0 -0 -0 -0 -0 -0 -0 0 0 0 -0 -0 -0 -0 -0 0 -0 -0 0 0 -0 -0 -0 -0 -0 -0 -0 -0 -0
-0 -0 -0 -0 -0 -1 -0 -1 -0 -0 -0 -0 0 0 0 -0 -0 0 -0 0 0 -0 0 0 0 0 0 0 0 0 0 0 0 0 -0 -0 0 -0 -0 -0 -0 -0 -0
-0 -0 -0 -0 -0 -0 -1 -1 -0 -0 -0 -0 -0 -0 0 -0 -0 0 0 0 0 0 0 0 0 0 0 0 0 0 0 0 0 0 -0 -0 0 0 0 0 0 0 0
-0 -0 -0 -0 -0 -0 -0 -0 -0 -0 -0 -0 -0 -0 -0 -0 0 0 0 0 0 0 0 0 0 0 0 0 0 0 0 0 0 0 0 0 0 0 0 0 0 0 0
-0 -0 -0 -0 -0 -0 -0 -0 -0 -0 -0 -0 -0 -0 -0 -0 -0 0 0 0 0 0 0 0 0 0 0 0 0 0 0 0 0 0 0 0 0 0 0 0 0 0 0
-0 0 -0 -0 -0 -0 -0 -0 -0 -0 -0 -0 -0 -0 -0 -0 -0 0 0 0 0 0 0 0 0 0 0 0 0 0 0 0 0 0 0 0 0 0 0 0 0 0 0
0 0 -0 -0 -0 -0 -0 -0 0 0 0 -0 -0 -0 0 0 0 0 0 0 0 0 0 0 0 0 0 0 0 0 0 0 0 0 0 0 0 0 0 0 0 0 0
0 0 0 0 -0 -0 -0 -0 -0 0 0 0 0 0 0 0 0 0 0 0 0 0 0 0 0 0 0 0 0 0 0 0 0 0 0 0 0 0 0 0 0 0 0
0 0 0 0 0 0 0 -0 -0 -0 -0 0 0 0 0 0 0 0 0 0 0 0 0 0 0 0 0 0 0 0 0 0 0 0 0 0 0 0 0 0 0 0 0
0 0 0 0 0 0 0 0 -0 -0 -0 -0 0 0 0 0 0 0 0 0 0 0 0 0 0 0 0 0 0 0 0 0 0 0 0 0 0 0 0 0 0 0 0
0 0 0 0 0 0 0 0 0 0 0 0 0 0 0 0 0 0 0 0 0 0 0 0 0 0 0 0 0 0 0 0 0 0 0 0 0 0 0 0 0 0 0
0 0 0 0 0 0 0 0 0 0 0 0 0 0 0 0 0 0 0 0 0 0 0 0 0 0 0 0 0 0 0 0 0 0 0 0 0 0 0 0 0 0 0
0 0 0 0 0 0 0 0 0 0 0 0 0 0 0 0 0 0 0 0 0 0 0 0 0 0 0 0 0 0 0 0 0 0 0 0 0 0 0 0 0 0 0
0 0 0 0 0 0 0 0 0 0 0 0 0 0 0 0 0 0 0 0 0 0 0 0 0 0 0 0 0 0 0 0 0 0 0 0 0 0 0 0 0 0 0
0 0 0 0 0 0 0 0 0 0 0 0 0 0 0 0 0 0 0 0 0 0 0 0 0 0 0 0 0 0 0 0 0 0 0 0 0 0 0 0 0 0 0
0 0 0 0 0 0 0 0 0 0 0 0 0 0 0 0 0 0 0 0 0 0 0 0 0 0 0 0 0 0 0 0 0 0 0 0 0 0 0 0 0 0 0
0 0 0 0 0 0 0 0 0 0 0 0 0 0 0 0 0 0 0 0 0 0 0 0 0 0 0 0 0 0 0 0 0 0 0 0 0 0 0 0 0 0 0
0 0 0 0 0 0 0 0 0 0 0 0 0 0 0 0 0 0 0 0 0 0 0 0 0 0 0 0 0 0 0 0 0 0 0 0 0 0 0 0 0 0 0
0 0 0 0 0 0 0 0 0 0 0 0 0 0 0 0 0 0 0 0 0 0 0 0 0 0 0 0 0 0 0 0 0 0 0 0 0 0 0 0 0 0 0
0 0 0 0 0 0 0 0 0 0 0 0 0 0 0 0 0 0 0 0 0 0 0 0 0 0 0 0 0 0 0 0 0 0 0 0 0 0 0 0 0 0 0
0 0 0 0 0 0 0 0 0 0 0 0 0 0 0 0 0 0 0 0 0 0 0 0 0 0 0 0 0 0 0 0 0 0 0 0 0 0 0 0 0 0 0
0 0 0 0 0 0 0 0 0 0 0 0 0 0 0 0 0 0 0 0 0 0 0 0 0 0 0 0 0 0 0 0 0 0 0 0 0 0 0 0 0 0 0
0 0 0 0 0 0 0 0 0 0 0 0 0 0 0 0 0 0 0 0 0 0 0 0 0 0 0 0 0 0 0 0 0 0 0 0 0 0 0 0 0 0 0
0 0 0 0 0 0 0 0 0 0 0 0 0 0 0 0 0 0 0 0 0 0 0 0 0 0 0 0 0 0 0 0 0 0 0 0 0 0 0 0 0 0 0
0 0 0 0 0 0 0 0 0 0 0 0 0 0 0 0 0 0 0 0 0 0 0 0 0 0 0 0 0 0 0 0 0 0 0 0 0 0 0 0 0 0 0
Wind_Speed_500mb
18 28 40 40 37 34 36 34 30 25 23 21 19 17 16 14 11 8 9 7 3 3 5 8 9 8 8 8 8 8 9 12 17 15 13 15 15 19 19 16 18 20 16
14 31 40 39 38 38 35 33 30 27 24 21 18 15 13 14 11 13 15 11 5 3 3 6 7 7 5 4 3 4 5 9 13 12 14 15 9 12 15 16 17 16 17
14 30 39 38 38 37 36 34 33 29 26 23 20 19 17 18 21 22 19 11 9 8 4 5 6 7 6 4 2 2 6 9 13 11 10 9 6 4 10 15 14 14 11
10 27 39 39 39 38 37 34 33 29 26 24 22 18 18 19 18 22 22 17 14 11 8 8 7 6 5 4 2 4 8 14 18 12 13 5 2 2 9 11 11 10 8
14 22 37 40 40 39 37 35 34 32 30 25 22 21 23 21 17 21 22 17 16 12 10 9 8 6 4 2 3 6 11 17 21 17 13 12 4 1 6 11 9 7 6
17 21 28 41 42 40 38 38 35 33 32 30 29 27 26 29 21 17 20 18 16 13 14 12 9 6 4 4 5 7 10 16 19 19 20 17 14 6 6 9 6 4 4
19 23 24 37 42 42 41 39 37 35 34 32 31 30 28 34 23 19 20 20 17 17 16 12 10 7 5 5 6 8 10 12 16 15 14 15 18 20 15 4 5 6 7
19 22 26 30 40 43 43 42 40 38 36 33 34 32 29 33 21 20 21 21 20 20 18 15 12 12 10 9 9 10 11 11 16 17 15 15 16 18 17 9 8 9 10
17 25 28 30 35 42 46 45 43 41 39 38 41 38 37 34 24 22 24 23 23 22 19 17 14 13 12 11 11 12 11 11 16 16 15 15 15 16 15 12 11 11 13
19 24 28 33 36 42 48 49 47 45 44 45 46 46 44 43 36 28 27 26 25 24 21 18 18 17 15 14 13 13 13 15 18 17 15 16 16 14 14 14 14 14 15
25 29 31 33 37 40 49 49 46 47 47 48 52 52 52 45 37 34 29 28 28 27 24 23 22 20 19 18 17 16 16 18 19 17 17 18 17 17 15 14 13 15 15
32 35 36 37 36 38 45 49 48 48 50 54 57 55 52 49 42 38 32 32 32 31 28 26 25 24 23 22 21 20 20 20 21 20 20 20 20 20 18 19 16 16 15
35 35 36 36 38 39 42 46 52 54 55 57 59 59 56 56 50 43 39 38 37 36 32 31 29 30 29 27 26 24 24 23 24 22 21 21 21 21 22 22 19 18 19
38 34 35 38 37 40 42 45 45 51 56 60 61 61 61 60 58 51 46 42 41 39 37 35 33 36 33 30 29 28 27 26 25 24 23 23 22 21 22 22 20 18 17
35 35 35 39 41 38 41 47 48 49 51 53 57 60 63 64 62 58 53 48 44 42 40 39 39 40 38 37 34 32 31 29 28 25 24 24 24 24 25 24 19 19 21
35 33 33 37 37 39 37 42 50 52 54 54 54 53 52 56 59 61 56 52 49 47 44 43 42 43 42 41 39 37 35 33 31 29 28 28 27 27 26 24 17 27 24
31 29 25 24 30 38 40 36 43 50 55 57 56 51 49 49 52 56 54 54 53 52 51 49 48 50 50 49 46 44 42 40 38 36 33 32 30 30 29 26 29 34 35
16 18 10 10 17 26 35 37 36 43 49 50 49 50 48 48 47 51 52 55 57 59 57 55 53 54 55 56 54 51 50 47 44 42 39 38 34 33 33 32 36 37 30
3 9 11 13 7 14 23 29 31 33 40 45 44 48 49 51 50 50 55 56 57 61 62 60 60 60 60 60 58 57 55 54 50 48 47 46 42 40 37 39 41 40 30
13 10 12 15 14 5 10 20 26 28 29 34 40 43 48 50 52 54 55 57 57 62 66 66 65 64 64 60 59 60 59 58 56 56 53 51 49 46 43 46 50 44 39
31 25 20 11 9 3 5 2 12 20 25 28 30 35 42 46 50 53 55 57 60 63 65 66 66 67 68 65 64 65 66 64 63 64 60 58 58 54 51 51 55 55 50
51 48 37 29 21 17 13 12 7 2 5 10 17 24 28 33 42 49 52 52 54 59 65 69 70 71 71 70 73 72 56 72 75 74 70 67 64 64 60 59 58 58 56
51 52 49 44 38 31 22 14 11 7 4 6 9 14 20 24 29 35 41 47 50 54 59 64 70 72 76 77 81 75 29 47 54 72 82 76 74 73 70 65 64 63 61
52 48 47 45 42 40 35 30 27 25 23 21 23 24 23 22 20 24 27 33 42 47 53 56 59 66 72 81 84 91 93 63 40 41 59 78 84 81 78 75 72 69 64
39 39 37 35 34 33 31 30 28 27 26 25 23 23 23 23 28 24 26 34 36 43 49 50 55 61 68 75 86 93 98 101 75 68 67 63 78 83 87 82 79 74 71
37 35 35 32 31 30 30 29 31 29 27 26 27 29 31 28 24 28 32 34 37 40 44 50 53 59 66 74 83 89 97 97 102 81 82 82 79 79 83 86 85 81 79
Wind_Direction_500mb
178 178 182 184 183 180 175 173 177 180 177 173 169 167 164 139 161 150 164 189 168 87 24 20 23 36 43 51 61 68 73 82 94 110 80 79 99 95 88 82 82 83 96
178 178 183 187 190 187 184 180 181 182 184 183 182 181 151 157 166 163 187 186 191 233 337 348 355 2 2 10 37 82 94 101 107 106 91 69 84 114 106 97 84 83 88
185 185 188 190 194 196 194 191 188 188 188 190 190 180 169 178 182 195 211 207 224 242 281 306 311 322 322 327 329 165 148 133 118 109 100 57 58 128 139 130 121 103 102
207 195 194 195 197 199 200 200 199 200 200 198 192 192 194 196 195 205 220 224 232 254 264 273 288 305 310 312 265 183 166 154 148 144 116 121 329 328 190 163 154 150 144
224 203 200 199 201 204 203 203 204 206 206 204 203 201 219 232 215 220 224 235 245 258 266 275 287 292 285 258 180 171 167 171 181 178 158 178 163 13 120 161 174 183 194
218 212 204 206 205 207 208 207 207 209 208 207 205 214 227 251 247 224 225 235 249 262 275 286 286 279 241 180 160 158 167 177 196 200 199 207 223 215 246 139 153 186 223
224 217 211 212 211 211 212 213 213 210 209 210 214 214 220 245 240 218 224 231 242 251 260 266 264 253 224 183 168 170 178 176 212 216 215 221 232 246 293 205 233 244 245
224 226 222 215 217 218 218 219 218 215 215 214 216 215 218 237 238 230 228 233 245 255 258 243 232 221 209 198 193 193 197 194 217 230 235 236 242 256 267 257 246 254 252
237 233 231 229 224 222 223 223 225 222 220 215 218 219 219 241 249 234 229 236 246 251 249 247 238 222 212 211 210 218 225 225 233 244 246 251 254 259 270 272 269 262 256
252 251 244 235 231 231 225 224 224 223 223 221 224 228 230 249 255 244 232 237 243 245 243 238 228 221 218 223 230 238 240 242 254 259 257 257 261 266 270 273 274 270 266
258 252 257 250 237 233 228 229 225 223 224 223 226 230 239 257 250 246 235 238 241 240 239 236 229 223 222 226 234 244 252 257 261 263 264 265 266 265 261 262 265 268 274
271 260 256 257 250 236 230 230 230 227 224 226 229 236 244 258 259 252 246 246 246 244 242 237 231 228 231 236 243 247 248 250 254 254 257 262 264 265 267 267 267 267 269
291 259 259 262 258 249 238 233 232 232 233 234 235 239 245 255 263 256 248 249 249 248 245 240 233 232 234 237 243 246 248 252 256 256 254 253 255 260 261 263 260 258 257
282 289 265 269 264 258 250 243 238 236 236 237 240 244 248 252 260 260 253 249 249 247 245 245 237 237 239 240 244 247 249 249 250 251 252 254 254 253 255 260 255 248 220
273 279 279 261 265 263 252 247 246 244 240 241 245 249 252 254 258 262 258 256 254 251 249 246 241 241 240 242 244 245 248 250 252 254 254 252 249 247 247 253 241 197 194
283 284 284 270 263 271 268 254 248 249 251 251 252 255 255 254 257 261 256 257 254 255 254 254 250 247 245 245 248 249 251 253 254 253 252 251 250 247 244 249 218 206 222
249 260 274 282 273 263 267 267 254 247 250 255 260 263 261 260 259 262 257 259 261 260 257 252 248 246 245 246 248 250 251 252 253 254 253 252 248 247 244 240 200 215 256
229 228 192 278 286 276 268 268 265 254 251 255 260 265 266 264 263 265 264 264 266 261 258 257 255 252 248 247 247 248 249 248 249 252 253 252 249 246 242 239 206 230 257
204 237 207 158 259 287 268 265 263 258 256 257 256 259 266 272 273 271 269 269 267 265 262 261 259 257 255 252 249 247 247 247 247 247 249 250 249 246 238 231 230 246 253
106 125 144 153 156 194 246 252 255 257 259 256 258 260 264 267 269 271 271 270 267 264 263 261 261 260 259 254 252 250 248 245 244 245 244 246 246 243 238 235 241 249 242
79 87 95 120 106 117 141 160 244 257 263 270 269 269 273 273 273 273 274 272 270 267 267 265 263 260 257 251 248 249 248 246 245 245 241 242 245 245 241 237 237 240 243
67 69 71 68 67 67 75 86 73 330 280 296 282 280 279 278 278 280 280 279 276 273 270 266 263 259 255 249 244 246 250 250 249 245 243 241 243 246 241 239 240 241 242
62 60 59 59 58 55 50 40 41 46 19 288 279 275 277 280 283 283 282 281 280 278 276 275 271 265 261 252 247 240 235 239 252 247 245 244 242 242 245 241 242 241 241
58 55 52 50 50 50 48 46 39 31 20 2 334 325 313 297 291 296 297 288 282 279 276 276 276 273 268 261 255 248 243 252 247 244 245 243 242 240 241 242 242 241 240
49 43 39 35 34 34 29 25 22 23 19 8 355 342 328 314 298 290 299 299 292 285 281 278 274 270 269 265 260 258 256 248 250 250 252 247 241 243 242 241 241 241 241
32 28 27 23 19 11 6 3 360 357 352 343 338 335 337 334 315 296 288 283 284 287 283 279 277 274 270 268 261 256 254 252 248 245 248 251 256 251 246 243 240 241 239
Wind_Speed_850mb
18 28 40 40 37 34 36 34 30 25 23 21 19 17 16 14 11 8 9 7 3 3 5 8 9 8 8 8 8 8 9 12 17 15 13 15 15 19 19 16 18 20 16
14 31 40 39 38 38 35 33 30 27 24 21 18 15 13 14 11 13 15 11 5 3 3 6 7 7 5 4 3 4 5 9 13 12 14 15 9 12 15 16 17 16 17
14 30 39 38 38 37 36 34 33 29 26 23 20 19 17 18 21 22 19 11 9 8 4 5 6 7 6 4 2 2 6 9 13 11 10 9 6 4 10 15 14 14 11
10 27 39 39 39 38 37 34 33 29 26 24 22 18 18 19 18 22 22 17 14 11 8 8 7 6 5 4 2 4 8 14 18 12 13 5 2 2 9 11 11 10 8
14 22 37 40 40 39 37 35 34 32 30 25 22 21 23 21 17 21 22 17 16 12 10 9 8 6 4 2 3 6 11 17 21 17 13 12 4 1 6 11 9 7 6
17 21 28 41 42 40 38 38 35 33 32 30 29 27 26 29 21 17 20 18 16 13 14 12 9 6 4 4 5 7 10 16 19 19 20 17 14 6 6 9 6 4 4
19 23 24 37 42 42 41 39 37 35 34 32 31 30 28 34 23 19 20 20 17 17 16 12 10 7 5 5 6 8 10 12 16 15 14 15 18 20 15 4 5 6 7
19 22 26 30 40 43 43 42 40 38 36 33 34 32 29 33 21 20 21 21 20 20 18 15 12 12 10 9 9 10 11 11 16 17 15 15 16 18 17 9 8 9 10
17 25 28 30 35 42 46 45 43 41 39 38 41 38 37 34 24 22 24 23 23 22 19 17 14 13 12 11 11 12 11 11 16 16 15 15 15 16 15 12 11 11 13
19 24 28 33 36 42 48 49 47 45 44 45 46 46 44 43 36 28 27 26 25 24 21 18 18 17 15 14 13 13 13 15 18 17 15 16 16 14 14 14 14 14 15
25 29 31 33 37 40 49 49 46 47 47 48 52 52 52 45 37 34 29 28 28 27 24 23 22 20 19 18 17 16 16 18 19 17 17 18 17 17 15 14 13 15 15
32 35 36 37 36 38 45 49 48 48 50 54 57 55 52 49 42 38 32 32 32 31 28 26 25 24 23 22 21 20 20 20 21 20 20 20 20 20 18 19 16 16 15
35 35 36 36 38 39 42 46 52 54 55 57 59 59 56 56 50 43 39 38 37 36 32 31 29 30 29 27 26 24 24 23 24 22 21 21 21 21 22 22 19 18 19
38 34 35 38 37 40 42 45 45 51 56 60 61 61 61 60 58 51 46 42 41 39 37 35 33 36 33 30 29 28 27 26 25 24 23 23 22 21 22 22 20 18 17
35 35 35 39 41 38 41 47 48 49 51 53 57 60 63 64 62 58 53 48 44 42 40 39 39 40 38 37 34 32 31 29 28 25 24 24 24 24 25 24 19 19 21
35 33 33 37 37 39 37 42 50 52 54 54 54 53 52 56 59 61 56 52 49 47 44 43 42 43 42 41 39 37 35 33 31 29 28 28 27 27 26 24 17 27 24
31 29 25 24 30 38 40 36 43 50 55 57 56 51 49 49 52 56 54 54 53 52 51 49 48 50 50 49 46 44 42 40 38 36 33 32 30 30 29 26 29 34 35
16 18 10 10 17 26 35 37 36 43 49 50 49 50 48 48 47 51 52 55 57 59 57 55 53 54 55 56 54 51 50 47 44 42 39 38 34 33 33 32 36 37 30
3 9 11 13 7 14 23 29 31 33 40 45 44 48 49 51 50 50 55 56 57 61 62 60 60 60 60 60 58 57 55 54 50 48 47 46 42 40 37 39 41 40 30
13 10 12 15 14 5 10 20 26 28 29 34 40 43 48 50 52 54 55 57 57 62 66 66 65 64 64 60 59 60 59 58 56 56 53 51 49 46 43 46 50 44 39
31 25 20 11 9 3 5 2 12 20 25 28 30 35 42 46 50 53 55 57 60 63 65 66 66 67 68 65 64 65 66 64 63 64 60 58 58 54 51 51 55 55 50
51 48 37 29 21 17 13 12 7 2 5 10 17 24 28 33 42 49 52 52 54 59 65 69 70 71 71 70 73 72 56 72 75 74 70 67 64 64 60 59 58 58 56
51 52 49 44 38 31 22 14 11 7 4 6 9 14 20 24 29 35 41 47 50 54 59 64 70 72 76 77 81 75 29 47 54 72 82 76 74 73 70 65 64 63 61
52 48 47 45 42 40 35 30 27 25 23 21 23 24 23 22 20 24 27 33 42 47 53 56 59 66 72 81 84 91 93 63 40 41 59 78 84 81 78 75 72 69 64
39 39 37 35 34 33 31 30 28 27 26 25 23 23 23 23 28 24 26 34 36 43 49 50 55 61 68 75 86 93 98 101 75 68 67 63 78 83 87 82 79 74 71
37 35 35 32 31 30 30 29 31 29 27 26 27 29 31 28 24 28 32 34 37 40 44 50 53 59 66 74 83 89 97 97 102 81 82 82 79 79 83 86 85 81 79
Wind_Direction_850mb
178 178 182 184 183 180 175 173 177 180 177 173 169 167 164 139 161 150 164 189 168 87 24 20 23 36 43 51 61 68 73 82 94 110 80 79 99 95 88 82 82 83 96
178 178 183 187 190 187 184 180 181 182 184 183 182 181 151 157 166 163 187 186 191 233 337 348 355 2 2 10 37 82 94 101 107 106 91 69 84 114 106 97 84 83 88
185 185 188 190 194 196 194 191 188 188 188 190 190 180 169 178 182 195 211 207 224 242 281 306 311 322 322 327 329 165 148 133 118 109 100 57 58 128 139 130 121 103 102
207 195 194 195 197 199 200 200 199 200 200 198 192 192 194 196 195 205 220 224 232 254 264 273 288 305 310 312 265 183 166 154 148 144 116 121 329 328 190 163 154 150 144
224 203 200 199 201 204 203 203 204 206 206 204 203 201 219 232 215 220 224 235 245 258 266 275 287 292 285 258 180 171 167 171 181 178 158 178 163 13 120 161 174 183 194
218 212 204 206 205 207 208 207 207 209 208 207 205 214 227 251 247 224 225 235 249 262 275 286 286 279 241 180 160 158 167 177 196 200 199 207 223 215 246 139 153 186 223
224 217 211 212 211 211 212 213 213 210 209 210 214 214 220 245 240 218 224 231 242 251 260 266 264 253 224 183 168 170 178 176 212 216 215 221 232 246 293 205 233 244 245
224 226 222 215 217 218 218 219 218 215 215 214 216 215 218 237 238 230 228 233 245 255 258 243 232 221 209 198 193 193 197 194 217 230 235 236 242 256 267 257 246 254 252
237 233 231 229 224 222 223 223 225 222 220 215 218 219 219 241 249 234 229 236 246 251 249 247 238 222 212 211 210 218 225 225 233 244 246 251 254 259 270 272 269 262 256
252 251 244 235 231 231 225 224 224 223 223 221 224 228 230 249 255 244 232 237 243 245 243 238 228 221 218 223 230 238 240 242 254 259 257 257 261 266 270 273 274 270 266
258 252 257 250 237 233 228 229 225 223 224 223 226 230 239 257 250 246 235 238 241 240 239 236 229 223 222 226 234 244 252 257 261 263 264 265 266 265 261 262 265 268 274
271 260 256 257 250 236 230 230 230 227 224 226 229 236 244 258 259 252 246 246 246 244 242 237 231 228 231 236 243 247 248 250 254 254 257 262 264 265 267 267 267 267 269
291 259 259 262 258 249 238 233 232 232 233 234 235 239 245 255 263 256 248 249 249 248 245 240 233 232 234 237 243 246 248 252 256 256 254 253 255 260 261 263 260 258 257
282 289 265 269 264 258 250 243 238 236 236 237 240 244 248 252 260 260 253 249 249 247 245 245 237 237 239 240 244 247 249 249 250 251 252 254 254 253 255 260 255 248 220
273 279 279 261 265 263 252 247 246 244 240 241 245 249 252 254 258 262 258 256 254 251 249 246 241 241 240 242 244 245 248 250 252 254 254 252 249 247 247 253 241 197 194
283 284 284 270 263 271 268 254 248 249 251 251 252 255 255 254 257 261 256 257 254 255 254 254 250 247 245 245 248 249 251 253 254 253 252 251 250 247 244 249 218 206 222
249 260 274 282 273 263 267 267 254 247 250 255 260 263 261 260 259 262 257 259 261 260 257 252 248 246 245 246 248 250 251 252 253 254 253 252 248 247 244 240 200 215 256
229 228 192 278 286 276 268 268 265 254 251 255 260 265 266 264 263 265 264 264 266 261 258 257 255 252 248 247 247 248 249 248 249 252 253 252 249 246 242 239 206 230 257
204 237 207 158 259 287 268 265 263 258 256 257 256 259 266 272 273 271 269 269 267 265 262 261 259 257 255 252 249 247 247 247 247 247 249 250 249 246 238 231 230 246 253
106 125 144 153 156 194 246 252 255 257 259 256 258 260 264 267 269 271 271 270 267 264 263 261 261 260 259 254 252 250 248 245 244 245 244 246 246 243 238 235 241 249 242
79 87 95 120 106 117 141 160 244 257 263 270 269 269 273 273 273 273 274 272 270 267 267 265 263 260 257 251 248 249 248 246 245 245 241 242 245 245 241 237 237 240 243
67 69 71 68 67 67 75 86 73 330 280 296 282 280 279 278 278 280 280 279 276 273 270 266 263 259 255 249 244 246 250 250 249 245 243 241 243 246 241 239 240 241 242
62 60 59 59 58 55 50 40 41 46 19 288 279 275 277 280 283 283 282 281 280 278 276 275 271 265 261 252 247 240 235 239 252 247 245 244 242 242 245 241 242 241 241
58 55 52 50 50 50 48 46 39 31 20 2 334 325 313 297 291 296 297 288 282 279 276 276 276 273 268 261 255 248 243 252 247 244 245 243 242 240 241 242 242 241 240
49 43 39 35 34 34 29 25 22 23 19 8 355 342 328 314 298 290 299 299 292 285 281 278 274 270 269 265 260 258 256 248 250 250 252 247 241 243 242 241 241 241 241
32 28 27 23 19 11 6 3 360 357 352 343 338 335 337 334 315 296 288 283 284 287 283 279 277 274 270 268 261 256 254 252 248 245 248 251 256 251 246 243 240 241 239